| time (UTC) | temp F | wind direction | speed MPH | gust MPH | rain 1hr in | rain 24hr in | rain mn in | humidity % | barometer mb |
| 20260505061026 | 49 | 334 | 11.0 | 22.0 | 0.00 | 0.00 | 0.00 | 51 | 1004.9 |
| 20260505060524 | 49 | 341 | 9.0 | 20.0 | 0.00 | 0.00 | 0.00 | 51 | 1004.8 |
| 20260505060020 | 50 | 342 | 11.0 | 23.0 | 0.00 | 0.00 | 0.00 | 50 | 1004.8 |
| 20260505055515 | 50 | 337 | 13.0 | 17.0 | 0.00 | 0.00 | 0.00 | 51 | 1004.5 |
| 20260505055013 | 50 | 324 | 7.0 | 16.0 | 0.00 | 0.00 | 0.00 | 50 | 1004.6 |
| 20260505054510 | 50 | 320 | 7.0 | 19.0 | 0.00 | 0.00 | 0.00 | 49 | 1004.4 |
| 20260505054008 | 50 | 338 | 16.0 | 21.0 | 0.00 | 0.00 | 0.00 | 48 | 1004.3 |
| 20260505053505 | 50 | 353 | 9.0 | 14.0 | 0.00 | 0.00 | 0.00 | 49 | 1004.4 |
| 20260505053001 | 51 | 335 | 13.0 | 20.0 | 0.00 | 0.00 | 0.00 | 49 | 1004.3 |
| 20260505052459 | 51 | 355 | 6.0 | 19.0 | 0.00 | 0.00 | 0.00 | 48 | 1004.1 |
| 20260505051955 | 52 | 317 | 17.0 | 18.0 | 0.00 | 0.00 | 0.00 | 48 | 1003.6 |
| 20260505051452 | 52 | 344 | 11.0 | 18.0 | 0.00 | 0.00 | 0.00 | 47 | 1003.7 |
| 20260505050951 | 52 | 347 | 12.0 | 14.0 | 0.00 | 0.00 | 0.00 | 48 | 1003.5 |
| 20260505050449 | 52 | 336 | 8.0 | 13.0 | 0.00 | 0.00 | 0.00 | 48 | 1003.2 |
| 20260505041416 | 55 | 347 | 9.0 | 16.0 | 0.00 | 0.00 | 0.00 | 49 | 1002.5 |
| 20260505040913 | 55 | 317 | 12.0 | 15.0 | 0.00 | 0.00 | 0.00 | 48 | 1002.5 |
| 20260505040411 | 55 | 356 | 12.0 | 17.0 | 0.00 | 0.00 | 0.00 | 48 | 1002.5 |
| 20260505035907 | 55 | 319 | 11.0 | 20.0 | 0.00 | 0.00 | 0.00 | 49 | 1002.2 |
| 20260505035403 | 55 | 338 | 7.0 | 12.0 | 0.00 | 0.00 | 0.00 | 49 | 1002.2 |
| 20260505034901 | 55 | 344 | 11.0 | 17.0 | 0.00 | 0.00 | 0.00 | 48 | 1002.1 |
| 20260505034357 | 56 | 337 | 9.0 | 15.0 | 0.00 | 0.00 | 0.00 | 47 | 1002.1 |
| 20260505033854 | 56 | 337 | 9.0 | 17.0 | 0.00 | 0.00 | 0.00 | 47 | 1001.7 |
| 20260505033351 | 56 | 326 | 14.0 | 19.0 | 0.00 | 0.00 | 0.00 | 47 | 1001.4 |
| 20260505032849 | 57 | 342 | 9.0 | 13.0 | 0.00 | 0.00 | 0.00 | 46 | 1001.4 |
| 20260505032345 | 57 | 345 | 11.0 | 18.0 | 0.00 | 0.00 | 0.00 | 46 | 1001.1 |
| 20260505031842 | 57 | 335 | 15.0 | 21.0 | 0.00 | 0.00 | 0.00 | 45 | 1000.8 |
| 20260505031339 | 57 | 336 | 9.0 | 21.0 | 0.00 | 0.00 | 0.00 | 43 | 1000.5 |
| 20260505030837 | 57 | 326 | 7.0 | 14.0 | 0.00 | 0.00 | 0.00 | 43 | 1000.5 |
| 20260505030332 | 57 | 339 | 8.0 | 16.0 | 0.00 | 0.00 | 0.00 | 43 | 1000.3 |
| 20260505025828 | 57 | 321 | 8.0 | 18.0 | 0.00 | 0.00 | 0.00 | 42 | 1000.0 |
| 20260505025326 | 57 | 315 | 9.0 | 16.0 | 0.00 | 0.00 | 0.00 | 42 | 1000.0 |
| 20260505024824 | 58 | 336 | 14.0 | 20.0 | 0.00 | 0.00 | 0.00 | 41 | 1000.2 |
| 20260505024321 | 58 | 328 | 14.0 | 26.0 | 0.00 | 0.00 | 0.00 | 40 | 1000.2 |
| 20260505023818 | 58 | 315 | 14.0 | 27.0 | 0.00 | 0.00 | 0.00 | 40 | 1000.1 |
| 20260505023315 | 59 | 316 | 18.0 | 23.0 | 0.00 | 0.00 | 0.00 | 41 | 1000.0 |
| 20260505022813 | 59 | 321 | 13.0 | 23.0 | 0.00 | 0.00 | 0.00 | 41 | 999.8 |
| 20260505022309 | 59 | 328 | 17.0 | 20.0 | 0.00 | 0.00 | 0.00 | 41 | 999.8 |
| 20260505021806 | 59 | 327 | 9.0 | 19.0 | 0.00 | 0.00 | 0.00 | 41 | 1000.1 |
| 20260505021303 | 59 | 315 | 17.0 | 25.0 | 0.00 | 0.00 | 0.00 | 41 | 999.7 |
| 20260505020759 | 60 | 321 | 18.0 | 25.0 | 0.00 | 0.00 | 0.00 | 41 | 999.6 |
| 20260505020254 | 60 | 319 | 16.0 | 22.0 | 0.00 | 0.00 | 0.00 | 40 | 999.5 |
| 20260505015752 | 61 | 329 | 13.0 | 23.0 | 0.00 | 0.00 | 0.00 | 41 | 999.4 |
| 20260505015249 | 61 | 312 | 10.0 | 19.0 | 0.00 | 0.00 | 0.00 | 41 | 999.3 |
| 20260505014746 | 61 | 296 | 15.0 | 19.0 | 0.00 | 0.00 | 0.00 | 42 | 999.2 |
| 20260505014243 | 61 | 319 | 9.0 | 19.0 | 0.00 | 0.00 | 0.00 | 41 | 998.9 |
| 20260505013739 | 62 | 318 | 12.0 | 24.0 | 0.00 | 0.00 | 0.00 | 40 | 998.8 |
| 20260505013237 | 62 | 294 | 17.0 | 20.0 | 0.00 | 0.00 | 0.00 | 40 | 998.7 |
| 20260505012735 | 62 | 308 | 30.0 | 30.0 | 0.00 | 0.00 | 0.00 | 39 | 998.8 |
| 20260505012232 | 62 | 309 | 14.0 | 22.0 | 0.00 | 0.00 | 0.00 | 39 | 998.5 |
| 20260505011727 | 63 | 302 | 17.0 | 20.0 | 0.00 | 0.00 | 0.00 | 39 | 998.7 |
| 20260505011225 | 63 | 323 | 10.0 | 19.0 | 0.00 | 0.00 | 0.00 | 38 | 998.4 |
| 20260505010720 | 63 | 310 | 8.0 | 20.0 | 0.00 | 0.00 | 0.00 | 38 | 998.4 |
| 20260505010217 | 64 | 321 | 14.0 | 26.0 | 0.00 | 0.00 | 0.00 | 36 | 998.4 |
| 20260505005714 | 64 | 311 | 17.0 | 24.0 | 0.00 | 0.00 | 0.00 | 36 | 998.4 |
| 20260505005211 | 64 | 302 | 17.0 | 28.0 | 0.00 | 0.00 | 0.00 | 35 | 998.3 |
| 20260505004708 | 64 | 305 | 14.0 | 27.0 | 0.00 | 0.00 | 0.00 | 36 | 998.1 |
| 20260505004204 | 64 | 315 | 20.0 | 24.0 | 0.00 | 0.00 | 0.00 | 37 | 998.2 |
| 20260505003701 | 64 | 307 | 10.0 | 18.0 | 0.00 | 0.00 | 0.00 | 40 | 998.0 |
| 20260505003159 | 65 | 307 | 9.0 | 20.0 | 0.00 | 0.00 | 0.00 | 38 | 997.9 |
| 20260505002655 | 66 | 311 | 19.0 | 26.0 | 0.00 | 0.00 | 0.00 | 36 | 997.6 |
| 20260505002153 | 66 | 320 | 9.0 | 22.0 | 0.00 | 0.00 | 0.00 | 38 | 997.8 |
| 20260505001650 | 66 | 328 | 10.0 | 16.0 | 0.00 | 0.00 | 0.00 | 39 | 997.5 |
| 20260505001147 | 66 | 319 | 13.0 | 16.0 | 0.00 | 0.00 | 0.00 | 36 | 997.1 |
| 20260505000644 | 66 | 327 | 13.0 | 18.0 | 0.00 | 0.00 | 0.00 | 37 | 997.4 |
| 20260505000142 | 67 | 297 | 12.0 | 22.0 | 0.00 | 0.00 | 0.00 | 38 | 997.2 |
| 20260504235638 | 67 | 305 | 22.0 | 28.0 | 0.00 | 0.00 | 0.00 | 37 | 997.0 |
| 20260504235135 | 67 | 326 | 12.0 | 20.0 | 0.00 | 0.00 | 0.00 | 37 | 997.0 |
| 20260504234632 | 68 | 294 | 19.0 | 26.0 | 0.00 | 0.00 | 0.00 | 36 | 996.9 |
| 20260504234130 | 68 | 305 | 17.0 | 25.0 | 0.00 | 0.00 | 0.00 | 37 | 996.9 |
| 20260504233625 | 68 | 306 | 9.0 | 18.0 | 0.00 | 0.00 | 0.00 | 38 | 997.0 |
| 20260504233121 | 68 | 298 | 20.0 | 23.0 | 0.00 | 0.00 | 0.00 | 38 | 996.9 |
| 20260504232619 | 68 | 274 | 15.0 | 25.0 | 0.00 | 0.00 | 0.00 | 36 | 997.1 |
| 20260504232116 | 68 | 286 | 15.0 | 22.0 | 0.00 | 0.00 | 0.00 | 37 | 996.7 |
| 20260504231613 | 69 | 303 | 22.0 | 24.0 | 0.00 | 0.00 | 0.00 | 35 | 996.7 |
| 20260504231109 | 69 | 320 | 14.0 | 20.0 | 0.00 | 0.00 | 0.00 | 36 | 996.8 |
| 20260504230605 | 69 | 304 | 13.0 | 19.0 | 0.00 | 0.00 | 0.00 | 37 | 996.8 |
| 20260504230104 | 69 | 304 | 18.0 | 20.0 | 0.00 | 0.00 | 0.00 | 37 | 997.0 |
| 20260504225601 | 69 | 337 | 18.0 | 20.0 | 0.00 | 0.00 | 0.00 | 37 | 997.0 |
| 20260504225058 | 70 | 312 | 10.0 | 18.0 | 0.00 | 0.00 | 0.00 | 40 | 996.7 |
| 20260504224554 | 70 | 271 | 10.0 | 21.0 | 0.00 | 0.00 | 0.00 | 38 | 996.9 |
| 20260504224052 | 71 | 311 | 9.0 | 21.0 | 0.00 | 0.00 | 0.00 | 40 | 996.3 |
| 20260504223549 | 71 | 313 | 14.0 | 25.0 | 0.00 | 0.00 | 0.00 | 39 | 996.6 |
| 20260504223044 | 71 | 307 | 15.0 | 24.0 | 0.00 | 0.00 | 0.00 | 40 | 996.6 |
| 20260504222541 | 71 | 295 | 15.0 | 26.0 | 0.00 | 0.00 | 0.00 | 40 | 996.6 |
| 20260504222039 | 71 | 296 | 13.0 | 25.0 | 0.00 | 0.00 | 0.00 | 39 | 996.6 |
| 20260504221536 | 72 | 281 | 21.0 | 29.0 | 0.00 | 0.00 | 0.00 | 38 | 996.3 |
| 20260504221032 | 72 | 317 | 17.0 | 32.0 | 0.00 | 0.00 | 0.00 | 37 | 996.2 |
| 20260504220529 | 72 | 271 | 24.0 | 32.0 | 0.00 | 0.00 | 0.00 | 38 | 996.3 |
| 20260504220026 | 72 | 294 | 15.0 | 22.0 | 0.00 | 0.00 | 0.00 | 41 | 996.2 |
| 20260504215522 | 72 | 305 | 23.0 | 26.0 | 0.00 | 0.00 | 0.00 | 40 | 996.0 |
| 20260504215020 | 72 | 316 | 24.0 | 31.0 | 0.00 | 0.00 | 0.00 | 40 | 996.0 |
| 20260504214516 | 72 | 309 | 14.0 | 26.0 | 0.00 | 0.00 | 0.00 | 41 | 996.0 |
| 20260504214012 | 73 | 304 | 22.0 | 27.0 | 0.00 | 0.00 | 0.00 | 39 | 996.0 |
| 20260504213509 | 73 | 295 | 23.0 | 27.0 | 0.00 | 0.00 | 0.00 | 41 | 995.8 |
| 20260504213006 | 73 | 315 | 17.0 | 34.0 | 0.00 | 0.00 | 0.00 | 40 | 995.6 |
| 20260504212502 | 73 | 308 | 20.0 | 32.0 | 0.00 | 0.00 | 0.00 | 39 | 995.8 |
| 20260504211959 | 74 | 297 | 15.0 | 23.0 | 0.00 | 0.00 | 0.00 | 40 | 995.8 |
| 20260504211456 | 74 | 264 | 14.0 | 25.0 | 0.00 | 0.00 | 0.00 | 42 | 995.7 |
| 20260504210953 | 74 | 312 | 8.0 | 24.0 | 0.00 | 0.00 | 0.00 | 43 | 995.9 |
| 20260504210450 | 75 | 320 | 10.0 | 23.0 | 0.00 | 0.00 | 0.00 | 42 | 995.7 |
| 20260504205947 | 74 | 270 | 9.0 | 19.0 | 0.00 | 0.00 | 0.00 | 43 | 995.6 |
| 20260504205444 | 74 | 318 | 17.0 | 25.0 | 0.00 | 0.00 | 0.00 | 43 | 995.8 |
| 20260504204943 | 74 | 289 | 11.0 | 26.0 | 0.00 | 0.00 | 0.00 | 43 | 995.7 |
| 20260504204441 | 74 | 305 | 11.0 | 20.0 | 0.00 | 0.00 | 0.00 | 42 | 995.8 |
| 20260504203939 | 74 | 270 | 13.0 | 21.0 | 0.00 | 0.00 | 0.00 | 43 | 995.7 |
| 20260504203437 | 74 | 282 | 8.0 | 18.0 | 0.00 | 0.00 | 0.00 | 41 | 995.7 |
| 20260504202933 | 74 | 330 | 8.0 | 20.0 | 0.00 | 0.00 | 0.00 | 42 | 995.6 |
| 20260504202429 | 74 | 285 | 10.0 | 20.0 | 0.00 | 0.00 | 0.00 | 41 | 995.8 |
| 20260504201926 | 75 | 292 | 7.0 | 23.0 | 0.00 | 0.00 | 0.00 | 41 | 995.9 |
| 20260504201424 | 74 | 258 | 13.0 | 26.0 | 0.00 | 0.00 | 0.00 | 41 | 995.9 |
| 20260504200921 | 74 | 268 | 4.0 | 22.0 | 0.00 | 0.00 | 0.00 | 41 | 995.9 |
| 20260504200417 | 75 | 275 | 11.0 | 21.0 | 0.00 | 0.00 | 0.00 | 42 | 995.8 |
| 20260504195914 | 75 | 250 | 15.0 | 24.0 | 0.00 | 0.00 | 0.00 | 44 | 995.7 |
| 20260504195410 | 73 | 247 | 20.0 | 26.0 | 0.00 | 0.00 | 0.00 | 42 | 995.9 |
| 20260504194907 | 73 | 272 | 23.0 | 27.0 | 0.00 | 0.00 | 0.00 | 42 | 995.9 |
| 20260504194403 | 73 | 248 | 11.0 | 23.0 | 0.00 | 0.00 | 0.00 | 45 | 996.1 |
| 20260504193859 | 74 | 258 | 17.0 | 24.0 | 0.00 | 0.00 | 0.00 | 42 | 995.9 |
| 20260504193356 | 74 | 251 | 9.0 | 28.0 | 0.00 | 0.00 | 0.00 | 42 | 995.7 |
| 20260504192855 | 74 | 252 | 17.0 | 22.0 | 0.00 | 0.00 | 0.00 | 42 | 995.9 |
| 20260504192352 | 76 | 240 | 21.0 | 26.0 | 0.00 | 0.00 | 0.00 | 40 | 995.9 |
| 20260504191850 | 76 | 246 | 15.0 | 33.0 | 0.00 | 0.00 | 0.00 | 40 | 996.2 |
| 20260504191348 | 74 | 295 | 8.0 | 33.0 | 0.00 | 0.00 | 0.00 | 41 | 995.9 |
| 20260504190843 | 73 | 268 | 7.0 | 25.0 | 0.00 | 0.00 | 0.00 | 44 | 995.9 |
| 20260504190339 | 74 | 240 | 26.0 | 28.0 | 0.00 | 0.00 | 0.00 | 42 | 996.0 |
| 20260504185836 | 74 | 232 | 10.0 | 19.0 | 0.00 | 0.00 | 0.00 | 43 | 996.3 |
| 20260504185333 | 75 | 254 | 9.0 | 22.0 | 0.00 | 0.00 | 0.00 | 42 | 995.9 |
| 20260504184829 | 74 | 251 | 19.0 | 26.0 | 0.00 | 0.00 | 0.00 | 40 | 996.0 |
| 20260504184325 | 74 | 251 | 17.0 | 32.0 | 0.00 | 0.00 | 0.00 | 42 | 995.8 |
| 20260504183821 | 75 | 228 | 17.0 | 28.0 | 0.00 | 0.00 | 0.00 | 40 | 995.8 |
| 20260504183319 | 74 | 241 | 18.0 | 30.0 | 0.00 | 0.00 | 0.00 | 40 | 996.0 |
| 20260504182816 | 75 | 259 | 12.0 | 25.0 | 0.00 | 0.00 | 0.00 | 40 | 996.1 |
| 20260504182314 | 75 | 244 | 25.0 | 32.0 | 0.00 | 0.00 | 0.00 | 39 | 995.8 |
| 20260504181811 | 75 | 304 | 14.0 | 32.0 | 0.00 | 0.00 | 0.00 | 39 | 996.1 |
| 20260504181308 | 74 | 249 | 25.0 | 27.0 | 0.00 | 0.00 | 0.00 | 41 | 996.1 |
| 20260504180807 | 74 | 250 | 18.0 | 32.0 | 0.00 | 0.00 | 0.00 | 41 | 996.1 |
| 20260504180305 | 74 | 235 | 15.0 | 28.0 | 0.00 | 0.00 | 0.00 | 41 | 996.1 |
| 20260504175803 | 73 | 254 | 14.0 | 30.0 | 0.00 | 0.00 | 0.00 | 41 | 996.0 |
| 20260504175259 | 73 | 240 | 26.0 | 32.0 | 0.00 | 0.00 | 0.00 | 40 | 996.3 |
| 20260504174757 | 73 | 246 | 20.0 | 28.0 | 0.00 | 0.00 | 0.00 | 42 | 996.3 |
| 20260504174255 | 72 | 250 | 28.0 | 32.0 | 0.00 | 0.00 | 0.00 | 42 | 996.4 |
| 20260504173751 | 73 | 257 | 28.0 | 32.0 | 0.00 | 0.00 | 0.00 | 42 | 996.2 |
| 20260504173248 | 73 | 233 | 20.0 | 31.0 | 0.00 | 0.00 | 0.00 | 42 | 996.6 |
| 20260504172745 | 72 | 236 | 17.0 | 35.0 | 0.00 | 0.00 | 0.00 | 41 | 996.4 |
| 20260504172241 | 73 | 242 | 33.0 | 34.0 | 0.00 | 0.00 | 0.00 | 41 | 996.4 |
| 20260504171737 | 72 | 237 | 29.0 | 34.0 | 0.00 | 0.00 | 0.00 | 41 | 996.5 |
| 20260504171235 | 72 | 247 | 28.0 | 38.0 | 0.00 | 0.00 | 0.00 | 39 | 996.5 |
| 20260504170732 | 72 | 249 | 23.0 | 35.0 | 0.00 | 0.00 | 0.00 | 39 | 996.7 |
| 20260504170229 | 72 | 231 | 33.0 | 36.0 | 0.00 | 0.00 | 0.00 | 42 | 996.6 |
| 20260504160147 | 69 | 234 | 25.0 | 34.0 | 0.00 | 0.00 | 0.00 | 42 | 997.3 |
| 20260504151115 | 67 | 237 | 24.0 | 34.0 | 0.00 | 0.00 | 0.00 | 45 | 998.0 |
| 20260504150612 | 67 | 226 | 19.0 | 34.0 | 0.00 | 0.00 | 0.00 | 46 | 997.6 |
| 20260504150109 | 66 | 242 | 26.0 | 36.0 | 0.00 | 0.00 | 0.00 | 46 | 997.9 |
| 20260504141038 | 64 | 221 | 21.0 | 28.0 | 0.00 | 0.00 | 0.00 | 46 | 998.9 |
| 20260504140534 | 64 | 235 | 18.0 | 26.0 | 0.00 | 0.00 | 0.00 | 48 | 998.7 |
| 20260504130459 | 60 | 245 | 17.0 | 24.0 | 0.00 | 0.00 | 0.00 | 53 | 1000.0 |
| 20260504110346 | 51 | 194 | 6.0 | 9.0 | 0.00 | 0.00 | 0.00 | 68 | 1001.0 |
| 20260504100303 | 52 | 216 | 5.0 | 8.0 | 0.00 | 0.00 | 0.00 | 65 | 1001.7 |
| 20260504081657 | 47 | 194 | 4.0 | 4.0 | 0.00 | 0.00 | 0.00 | 75 | 1003.0 |
| 20260504081153 | 48 | 191 | 4.0 | 6.0 | 0.00 | 0.00 | 0.00 | 74 | 1003.0 |
| 20260504080649 | 49 | 170 | 4.0 | 5.0 | 0.00 | 0.00 | 0.00 | 73 | 1003.1 |
| 20260504080146 | 49 | 174 | 5.0 | 5.0 | 0.00 | 0.00 | 0.00 | 73 | 1003.0 |
| 20260504070114 | 55 | 203 | 1.0 | 3.0 | 0.00 | 0.00 | 0.00 | 58 | 1003.7 |